This is the latest recevied weather packets stored in our database for station/object OK4PZ-5. If no packets are shown the sender has not sent any weather packets the latest 10 day(s).
| Time | Temp. | Humidity | Pressure | Rain* | Wind** | Luminosity | Snow |
|---|---|---|---|---|---|---|---|
| 1777730402 | 24.44° C | 28% | 1023 hPa | 0 mm | - | - | - |
| 1777729502 | 24.44° C | 26% | 1023 hPa | 0 mm | - | - | - |
| 1777728602 | 23.89° C | 27% | 1023 hPa | 0 mm | - | - | - |
| 1777727702 | 23.89° C | 26% | 1023 hPa | 0 mm | - | - | - |
| 1777726802 | 24.44° C | 28% | 1023 hPa | 0 mm | - | - | - |
| 1777725902 | 24.44° C | 28% | 1024 hPa | 0 mm | - | - | - |
| 1777725003 | 23.33° C | 30% | 1024 hPa | 0 mm | - | - | - |
| 1777724102 | 22.78° C | 32% | 1024 hPa | 0 mm | - | - | - |
| 1777723202 | 23.33° C | 31% | 1024 hPa | 0 mm | - | - | - |
| 1777722302 | 23.33° C | 32% | 1024 hPa | 0 mm | - | - | - |
| 1777721402 | 22.78° C | 33% | 1025 hPa | 0 mm | - | - | - |
| 1777719602 | 22.78° C | 32% | 1025 hPa | 0 mm | - | - | - |
| 1777718702 | 22.22° C | 33% | 1025 hPa | 0 mm | - | - | - |
| 1777717802 | 21.67° C | 35% | 1025 hPa | 0 mm | - | - | - |
| 1777716903 | 20.56° C | 36% | 1026 hPa | 0 mm | - | - | - |
| 1777716002 | 20° C | 37% | 1026 hPa | 0 mm | - | - | - |
| 1777715102 | 20° C | 38% | 1026 hPa | 0 mm | - | - | - |
| 1777714202 | 20° C | 38% | 1026 hPa | 0 mm | - | - | - |
| 1777713302 | 20° C | 37% | 1026 hPa | 0 mm | - | - | - |
| 1777712402 | 19.44° C | 38% | 1026 hPa | 0 mm | - | - | - |
| 1777711502 | 19.44° C | 36% | 1026 hPa | 0 mm | - | - | - |
| 1777710602 | 18.89° C | 39% | 1026 hPa | 0 mm | - | - | - |
| 1777709702 | 18.89° C | 42% | 1026 hPa | 0 mm | - | - | - |
| 1777708802 | 17.78° C | 43% | 1027 hPa | 0 mm | - | - | - |
| 1777707902 | 17.22° C | 45% | 1027 hPa | 0 mm | - | - | - |
* Rain latest hour (hover to see other rain measurements)
** Current wind speed in m/s (hover to see current wind gust speed)